Content
SEND FEEDBACK

Daily
Averages
Monthly
Summary
Canada

QUEBEC CITY, QUEBEC


Home > North America > Canada > Quebec
Elevation: 239 feet     Latitude: 46 48N     Longitude: 071 23W

WEATHER
 
SELECT A DAY
Number of Records: 191,996;   Date Range: 6/30/96 - 7/23/14
 
SHARE

PRINT THIS DATA

[ ← Previous Day ]
WEATHER ALMANAC - FEBRUARY 11, 2014
[ Next Day → ]
[ °C ]   °F
Weather ElementAverageHighLow
Temperature2.1 °F9 °F (4:00 pm)-10 °F (1:00 am)
Dewpoint-11.2 °F-8 °F (4:00 am)-14.8 °F (3:00 am)
Humidity51.7 %77 % (2:00 am)27 % (1:00 pm)
Barometer30.29 in30.42 in (11:00 pm)30.15 in (1:00 am)
Wind Speed9.4 mph16.1 mph (9:00 pm)
Wind Gust19.6 mph (6:00 pm)
Weather ElementAverage
Visibility22.2 mi
Wind DirectionWNW (279 °)

Weather ElementTotal
Precipitation---
Heating Degree Days65.5 (Base 65)
Averaged from 31 records on February 11, 2014
WEATHER CONDITIONS BREAKOUT
WIND DIRECTION BREAKOUT
WEATHER BY HOUR - FEBRUARY 11, 2014
[ °C ]   °F
Local TimeTemperatureDewpointHumidityBarometerVisibilityWind DirectionWind SpeedGust SpeedPrecipitationEventsConditions
1:00 AM-10.0 °F-14.0 °F75 %30.15 inNW (310°)2.3 mph
1:00 AM-2.2 °F-9.4 °F71 %30.15 in15.0 miWest (260°)4.6 mphScattered Clouds
2:00 AM-5.8 °F-11.2 °F77 %30.16 in15.0 miWSW (240°)4.6 mphPartly Cloudy
3:00 AM-9.4 °F-14.8 °F77 %30.17 in15.0 miNW (320°)6.9 mphPartly Cloudy
4:00 AM-5.0 °F-8.0 °F77 %30.17 inNNW (330°)3.5 mph
4:00 AM-0.4 °F-9.4 °F66 %30.17 in15.0 miNW (320°)9.2 mphPartly Cloudy
5:00 AM-0.4 °F-11.2 °F60 %30.19 in15.0 miNNW (340°)5.8 mphScattered Clouds
6:00 AM1.4 °F-9.4 °F61 %30.20 in15.0 miNW (320°)6.9 mphMostly Cloudy
7:00 AM1.0 °F-8.0 °F53 %30.23 inNW (320°)8.1 mph
7:00 AM1.4 °F-9.4 °F61 %30.23 in15.0 miNW (310°)8.1 mphMostly Cloudy
8:00 AM1.4 °F-9.4 °F61 %30.26 in30.0 miWest (260°)4.6 mphOvercast
9:00 AM3.2 °F-11.2 °F51 %30.27 in30.0 miWNW (300°)10.4 mphOvercast
10:00 AM3.0 °F-12.0 °F32 %30.29 inNW (310°)9.2 mph
10:00 AM3.2 °F-13.0 °F47 %30.28 in30.0 miNW (310°)8.1 mphMostly Cloudy
11:00 AM5.0 °F-11.2 °F47 %30.30 in30.0 miWNW (290°)12.7 mphMostly Cloudy
12:00 PM5.0 °F-13.0 °F43 %30.29 in30.0 miNW (310°)10.4 mphPartly Cloudy
1:00 PM7.0 °F-11.0 °F27 %30.29 inWest (260°)9.2 mph
1:00 PM6.8 °F-11.2 °F44 %30.29 in30.0 miWest (270°)12.7 mphPartly Cloudy
2:00 PM8.6 °F-9.4 °F44 %30.29 in30.0 miWest (270°)12.7 mphPartly Cloudy
3:00 PM8.6 °F-9.4 °F44 %30.31 in40.0 miWest (270°)9.2 mphPartly Cloudy
4:00 PM9.0 °F-9.0 °F28 %30.33 inWest (280°)12.7 mph
4:00 PM8.6 °F-9.4 °F44 %30.32 in40.0 miWest (280°)12.7 mph18.4 mphPartly Cloudy
5:00 PM6.8 °F-11.2 °F44 %30.35 in25.0 miWest (270°)11.5 mphClear
6:00 PM6.8 °F-11.2 °F44 %30.37 in15.0 miWest (260°)9.2 mph19.6 mphClear
7:00 PM4.0 °F-12.0 °F30 %30.39 inWSW (240°)6.9 mph
7:00 PM3.2 °F-13.0 °F47 %30.38 in15.0 miSW (230°)13.8 mphPartly Cloudy
8:00 PM1.4 °F-13.0 °F51 %30.39 in15.0 miSW (230°)12.7 mphPartly Cloudy
9:00 PM1.4 °F-13.0 °F51 %30.40 in15.0 miSW (230°)16.1 mphPartly Cloudy
10:00 PM-1.0 °F-13.0 °F40 %30.41 inWSW (250°)9.2 mph
10:00 PM1.4 °F-13.0 °F51 %30.41 in15.0 miWSW (240°)13.8 mphClear
11:00 PM-0.4 °F-13.0 °F55 %30.42 in15.0 miSW (220°)15.0 mphClear
Hourly data recorded from CYQB, located miles away from Quebec City, Quebec







STORIES FROM OUR PARTNERS